Location: Pedholt
(56.0260°N, 10.2097°E)
Time: 06:27:34
(UTC+00:00)

Cosmos 2360 - Pass Details

Date: 14 July 2020
Orbit: 844 x 858 km, 70.8° (Epoch: 14 August)

Event Time Altitude Azimuth Distance (km) Brightness Sun altitude
Rises 00:48:38 0° 324° (NW) 3,443 7.9 -10.3°
Reaches altitude 10° 00:51:07 10° 325° (NW) 2,504 7.2 -10.2°
Maximum altitude 00:56:53 83° 54° (NE) 873 4.4 -9.9°
Drops below altitude 10° 01:02:39 10° 143° (SE) 2,492 6.4 -9.6°
Sets 01:05:06 0° 144° (SE) 3,424 7.1 -9.5°
